Regional Weather Roundup
Issued by NWS Newport/Morehead, NC

Current Version | Previous Version | Graphics & Text | Print | Product List | Glossary On
Versions: 1 2 3 4 5 6 7 8 9 10 11 12 13 14 15 16 17 18 19 20 21 22 23 24 25 26 27 28 29 30 31 32 33 34 35 36 37 38 39 40 41 42 43 44 45 46 47 48 49 50
000 ASUS42 KMHX 040325 RWRMHX WEATHER ROUNDUP FOR EASTERN NORTH CAROLINA NATIONAL WEATHER SERVICE NEWPORT/MOREHEAD CITY NC 1100 PM EDT THU SEP 03 2015 NOTE: "FAIR" INDICATES FEW OR NO CLOUDS BELOW 12,000 FEET WITH NO SIGNIFICANT WEATHER AND/OR OBSTRUCTIONS TO VISIBILITY NCZ015>017-031-032-045>047-102-103-040400- NORTH COAST CITY SKY/WX TMP DP RH WIND PRES REMARKS EDENTON PTCLDY 73 71 93 CALM 29.90S ELIZABETH CITY CLEAR 73 71 93 CALM 29.90S KITTY HAWK CLEAR 77 71 83 SW3 29.89S MANTEO CLEAR 78 72 81 W3 29.90F $$ NCZ045>047-081-094-103-104-040400- CENTRAL COAST CITY SKY/WX TMP DP RH WIND PRES REMARKS FRISCO CLEAR 77 72 84 W3 29.90S SWANQUARTER N/A 81 N/A N/A W2 29.85S $$ NCZ095-097-098-100-101-040400- SOUTHERN COAST CITY SKY/WX TMP DP RH WIND PRES REMARKS BEAUFORT PTCLDY 78 76 93 NW3 29.90S CEDAR ISLAND N/A 79 N/A N/A W2 29.94S JACKSONVILLE PTCLDY 74 71 91 W3 29.90F PINEY ISLAND PTCLDY N/A N/A N/A W6 29.90S WILMINGTON MOCLDY 74 70 87 CALM 29.90F $$ NCZ011>013-027>030-043-044-078>080-089-090>093-098-040400- COASTAL PLAIN CITY SKY/WX TMP DP RH WIND PRES REMARKS AHOSKIE MOCLDY 72 71 97 CALM 29.91S FOG CLINTON PTCLDY 73 72 95 CALM 29.92S ELIZABETHTOWN PTCLDY 77 72 84 CALM 29.92S GOLDSBORO PTCLDY 76 71 86 CALM 29.90S GREENVILLE PTCLDY 73 73 100 CALM 29.93S FOG HAVELOCK CLEAR 74 71 91 CALM 29.91S KENANSVILLE N/A 71 70 96 SW3 29.93R FOG KINSTON PTCLDY 73 72 96 CALM 29.92S FOG NEW BERN CLEAR 74 72 93 CALM 29.92S RICHLANDS PTCLDY 73 68 83 CALM 29.91S ROCKY MOUNT PTCLDY 75 72 90 CALM 29.91F FOG WASHINGTON PTCLDY 73 72 94 CALM 29.90F WHITEVILLE MOCLDY 73 69 89 CALM 29.91S $$ AMZ130-135-150-152-154-156-158-170-250-252-270-ANZ085-086-088-633-658-670-040400- MARINE OBSERVATIONS STATION/POSITION TIME TEMP WIND PRES WAVE SWELL AIR SEA DIR/SP/G HT/PER HT/PER (UTC) (F) (DEG/KT/KT) (MB) (FT/S) (FT/S) CHESAPEAKE LIGHT 0300 80 210/ 7/ 8 1012.8 64 E VA BEACH 0250 79 79 260/ 6/ 6 1011.8 1/12 2/12 DUCK 0300 80 80 220/ 4/ 5 1011.5 2 E DUCK 0211 80 N/A 1/13 OREGON INLET 0300 81 83 240/ 5/ 7 1012.2 13E OREGON INLT 0300 81 N/A 1/13 HATTERAS CG 0300 79 84 230/ 5/ 5 1012.3 DIAMOND BUOY 0250 81 85 280/ 6/ 8 1012.5 1/ 9 2/ 9 CAPE LOOKOUT 0300 79 270/ 5/ 6 1012.3 BEAUFORT LAB 0300 80 83 280/ 2/ 6 1011.9 30 SE NEW RVR IN 0208 81 81 270/ 8/ 10 1012.7 30 SE NEW RVR IN 0225 82 N/A 2/ 3 27 SE WRIGHTSVLE 0300 76 82 310/ 4/ 6 N/A 5 SE WRIGHTSVLE 0208 78 82 300/ 6/ 8 1012.7 225 S CAPE HAT 0250 83 84 290/ 4/ 6 1013.0 2/13 2/13 41 SE CHARLESTON 0250 81 84 250/ 4/ 6 1012.8 2/ 9 2/ 9 $$

USA.gov is the U.S. government's official web portal to all federal, state and local government web resources and services.